Sigfox identifier Datetime Temperature Humidity SNR
0038B192 2018-10-09 09:23:08 21 39 18.9
0038B192 2018-10-09 08:15:36 21.1 39 18.8
0038B192 2018-10-09 07:08:06 21.1 39 18.8
0038B192 2018-10-09 06:00:31 21.1 39 18.7
0038B192 2018-10-09 04:52:57 21.1 38 18.6
0038B192 2018-10-09 01:30:24 21.1 37 20.3
0038B192 2018-10-09 00:22:51 21.3 37 20.3
0038B192 2018-10-08 23:15:22 21.3 37 20.2
0038B192 2018-10-08 22:07:49 21.3 37 20.2
0038B192 2018-10-08 19:52:43 21.3 36 20.2
0038B192 2018-10-08 18:45:09 21.3 36 20.3
0038B192 2018-10-08 16:30:06 21.3 35 20.2
0038B192 2018-10-08 15:22:33 21.2 35 20.2
0038B192 2018-10-08 14:15:03 21 34 20.2
0038B192 2018-10-08 13:07:27 21.1 33 20.2
0038B192 2018-10-08 10:52:15 20.8 33 20.2
0038B192 2018-10-08 09:44:42 20.6 34 20.2
0038B192 2018-10-08 08:37:08 20.7 34 20.1
0038B192 2018-10-08 06:22:07 20.8 35 20
0038B192 2018-10-08 05:14:34 20.8 35 20
0038B192 2018-10-08 04:07:04 20.8 35 17.9
0038B192 2018-10-08 02:59:34 20.7 36 17.9
0038B192 2018-10-08 01:52:03 20.8 36 17.9
0038B192 2018-10-08 00:44:32 20.8 36 17.9
0038B192 2018-10-07 22:29:31 20.8 37 17.8
0038B192 2018-10-07 21:21:59 20.9 37 17.8
0038B192 2018-10-07 20:14:32 20.9 37 17.8
0038B192 2018-10-07 19:06:56 20.9 37 17.8
0038B192 2018-10-07 17:59:25 20.8 37 20
0038B192 2018-10-07 16:51:57 20.9 37 19.9
0038B192 2018-10-07 15:44:22 20.9 37 17.7
0038B192 2018-10-07 13:29:19 20.9 37 17.7
0038B192 2018-10-07 12:21:47 20.8 38 17.8
0038B192 2018-10-07 11:14:09 20.9 38 17.8
0038B192 2018-10-07 08:59:08 20.9 38 17.8
0038B192 2018-10-07 07:51:36 20.9 38 17.7
0038B192 2018-10-07 06:44:02 21 38 17.8
0038B192 2018-10-07 05:36:32 21 38 17.7
0038B192 2018-10-07 03:21:28 21.1 38 17.6
0038B192 2018-10-07 01:06:31 21 39 17.6
0038B192 2018-10-06 23:58:57 21 39 17.5
0038B192 2018-10-06 19:29:00 21.1 39 17.6
0038B192 2018-10-06 18:21:30 21 39 17.7
0038B192 2018-10-06 16:06:28 21.1 39 17.7
0038B192 2018-10-06 14:59:01 21.1 39 17.7
0038B192 2018-10-06 13:51:31 21 39 17.8
0038B192 2018-10-06 12:44:01 21.1 39 17.8
0038B192 2018-10-06 11:36:32 21 39 17.9
0038B192 2018-10-06 08:13:58 21.1 40 17.8
0038B192 2018-10-06 07:06:28 21.3 40 17.7
0038B192 2018-10-06 05:58:59 21.3 40 17.8
0038B192 2018-10-06 04:51:28 21.3 41 17.8
0038B192 2018-10-06 03:43:55 21.3 41 17.8
0038B192 2018-10-06 02:36:24 21.3 41 13.2
0038B192 2018-10-06 00:21:26 21.3 42 13.2
0038B192 2018-10-05 23:13:49 21.5 42 14.2
0038B192 2018-10-05 22:06:20 21.5 42 14.1
0038B192 2018-10-05 20:58:46 21.5 42 14
0038B192 2018-10-05 19:51:13 21.6 42 14.1
0038B192 2018-10-05 18:43:44 21.7 42 14.1
0038B192 2018-10-05 17:36:08 21.7 42 14.2
0038B192 2018-10-05 16:28:37 21.7 42 14.4
0038B192 2018-10-05 14:13:29 21.7 41 14.5
0038B192 2018-10-05 13:05:55 21.5 40 15
0038B192 2018-10-05 11:58:20 21.5 40 15.4
0038B192 2018-10-05 09:43:08 21 34 15.5
0038B192 2018-10-05 06:20:26 20.9 29 15.8
0038B192 2018-10-05 05:12:55 20.9 29 15.7
0038B192 2018-10-05 02:57:51 21.1 29 15.8
0038B192 2018-10-05 01:50:19 21.1 29 17.3
0038B192 2018-10-05 00:42:46 21.1 29 17.3
0038B192 2018-10-04 23:35:15 21.3 29 17.1
0038B192 2018-10-04 19:05:07 21.3 29 17.1
0038B192 2018-10-04 17:57:32 21.1 29 19.6
0038B192 2018-10-04 16:50:02 21.1 29 19.6
0038B192 2018-10-04 15:42:27 21 29 19.6
0038B192 2018-10-04 14:34:55 21 29 19.6
0038B192 2018-10-04 13:27:19 20.9 29 19.7
0038B192 2018-10-04 12:19:46 20.8 30 19.7
0038B192 2018-10-04 11:12:13 20.7 31 21.3
0038B192 2018-10-04 10:04:38 20.6 31 21.1
0038B192 2018-10-04 07:49:28 20.4 34 21.2
0038B192 2018-10-04 06:41:54 20.4 36 21.2
0038B192 2018-10-04 05:34:23 20.4 36 21.3
0038B192 2018-10-04 04:26:50 20.4 37 21.3
0038B192 2018-10-04 03:19:13 20.5 37 21.4
0038B192 2018-10-04 02:11:38 20.5 38 21.5
0038B192 2018-10-04 01:04:09 20.6 38 21.5
0038B192 2018-10-03 23:56:32 20.6 39 21.5
0038B192 2018-10-03 22:48:59 20.6 39 21.3
0038B192 2018-10-03 21:41:25 20.6 40 21.3
0038B192 2018-10-03 20:33:52 20.6 40 21.2
0038B192 2018-10-03 19:26:19 20.6 40 21.2
0038B192 2018-10-03 18:18:40 20.6 41 21.3
0038B192 2018-10-03 17:11:06 20.6 43 20.8
0038B192 2018-10-03 16:03:30 20.6 43 21
0038B192 2018-10-03 13:48:20 20.4 43 21.1
0038B192 2018-10-03 10:25:38 20.4 40 21.4
0038B192 2018-10-03 09:18:01 20.2 40 20.2
0038B192 2018-10-03 08:10:30 20.2 38 20.2
0038B192 2018-10-03 07:02:56 20.2 40 20.5
0038B192 2018-10-03 05:55:21 20.2 40 20.4
0038B192 2018-10-03 04:47:50 20.4 40 20.4
0038B192 2018-10-03 03:40:16 20.4 40 20.4
0038B192 2018-10-03 02:32:44 20.4 40 19
0038B192 2018-10-03 01:25:12 20.4 40 19.3
0038B192 2018-10-03 00:17:40 20.4 40 19.2
0038B192 2018-10-02 23:10:02 20.4 40 19.4
0038B192 2018-10-02 22:02:30 20.4 40 19.3
0038B192 2018-10-02 20:54:54 20.4 40 19.6
0038B192 2018-10-02 19:47:22 20.4 40 19.5
0038B192 2018-10-02 18:39:51 20.4 40 19.5
0038B192 2018-10-02 17:32:16 20.5 41 19.6
0038B192 2018-10-02 16:24:42 20.6 40 19.7
0038B192 2018-10-02 15:17:04 20.6 39 19.9
0038B192 2018-10-02 14:09:29 20.5 39 20.1
0038B192 2018-10-02 13:01:54 20.5 39 20.3
0038B192 2018-10-02 11:54:19 20.6 43 20.5
0038B192 2018-10-02 10:46:37 20.4 43 20.6
0038B192 2018-10-02 09:38:57 20.4 44 20.7
0038B192 2018-10-02 08:31:18 20.2 42 20.4
0038B192 2018-10-02 07:23:42 20.2 41 20.7
0038B192 2018-10-02 06:16:03 20.4 43 20.3
0038B192 2018-10-02 05:08:24 20.4 43 19.9
0038B192 2018-10-02 04:00:47 20.4 43 20.3
0038B192 2018-10-02 02:53:10 20.4 43 19.9
0038B192 2018-10-02 01:45:33 20.4 43 20.3
0038B192 2018-10-02 00:37:55 20.4 43 20.7
0038B192 2018-10-01 23:30:16 20.4 43 21
0038B192 2018-10-01 22:22:34 20.4 43 20.5
0038B192 2018-10-01 21:14:52 20.4 43 19.9
0038B192 2018-10-01 20:07:13 20.4 43 21
0038B192 2018-10-01 18:59:36 20.2 43 20.4
0038B192 2018-10-01 17:51:51 20 44 23.2
0038B192 2018-10-01 16:44:07 17.2 60 0